Regional Weather Roundup
Issued by NWS Jackson, KY

Home | Current Version | Previous Version | Graphics & Text | Print | Product List | Glossary On
Versions: 1 2 3 4 5 6 7 8 9 10 11 12 13 14 15 16 17 18 19 20 21 22 23 24 25 26 27 28 29 30 31 32 33 34 35 36 37 38 39 40 41 42 43 44 45 46 47 48 49 50
545
ASUS43 KJKL 260210
RWRJKL

EAST KENTUCKY HOURLY WEATHER ROUNDUP
NATIONAL WEATHER SERVICE JACKSON KY
1000 PM EDT SAT MAR 25 2017

NOTE: "FAIR" INDICATES FEW OR NO CLOUDS BELOW 12,000 FEET WITH
NO SIGNIFICANT WEATHER AND/OR OBSTRUCTIONS TO VISIBILITY.

* THESE REPORTS ARE NOT UNDER NWS QUALITY CONTROL AND MAY NOT
  REPORT WEATHER SUCH AS PRECIPITATION AND FOG.

KYZ079-080-083-085-087-088-110-112-115-119-120-260300
...EASTERN KENTUCKY...

CITY           SKY/WX    TMP DP  RH WIND       PRES   REMARKS
JACKSON        PTCLDY    69  45  41 CALM      30.08S
LONDON         PTCLDY    66  44  45 SE3       30.06R
SOMERSET*      CLOUDY    64  50  59 W7        30.08R
MONTICELLO*    CLOUDY    63  55  75 W13       30.08S
WILLIAMSBURG*  MOCLDY    66  46  48 SE3       30.07R
MIDDLESBORO*   MOCLDY    62  50  66 CALM      30.10R
HARLAN APT*    CLEAR     66  45  45 E6        30.12R
PIKE CO APT*     N/A     69  46  42 S3        30.09S
BIG SANDY APT* CLEAR     66  46  48 CALM      30.08S
MOREHEAD APT*  CLOUDY    70  45  40 VRB5      30.07F
$$

KYZ035-036-041-042-044-050-067-078-099-260300
...CENTRAL KENTUCKY...

CITY           SKY/WX    TMP DP  RH WIND       PRES   REMARKS
MT STERLING*   CLEAR     66  48  52 S6        30.07R
FLEMING/MASON* CLEAR     64  48  56 SE9       30.06S
DANVILLE*      RAIN      64  52  63 SW8       30.07R
LEXINGTON      MOCLDY    68  48  48 SE9       30.04R
FRANKFORT      CLOUDY    70  48  45 SE7       30.01R
LOUISVILLE     CLOUDY    67  52  58 S14       30.00R
LEBANON*       MOCLDY    59  59 100 SE7       30.05S
GLASGOW*       CLOUDY    63  53  71 S13       30.01S
BOWLING GREEN  CLOUDY    65  54  67 S12       30.00R
$$

KYZ091>093-OHZ055-061-077-WVZ005-015-034-035-042-260300
...SOUTHERN OHIO/WEST VIRGINIA...

CITY           SKY/WX    TMP DP  RH WIND       PRES   REMARKS
COVINGTON      MOCLDY    67  51  56 SE7       30.02S
COLUMBUS       PTCLDY    65  50  58 SE5       30.06S
DAYTON         CLOUDY    64  49  57 SE10      30.04R
WILMINGTON     CLOUDY    62  50  64 E7        30.05S
HUNTINGTON     CLOUDY    68  47  46 E3        30.06R
CHARLESTON     CLOUDY    66  47  50 E6        30.07S
PINEVILLE*     PTCLDY    60  46  59 MISG      30.18R
BECKLEY        CLEAR     62  46  55 SE10      30.16R
BLUEFIELD      CLEAR     59  44  57 S9        30.19
LOGAN CO APT*    N/A     70  46  43 CALM      30.09S
$$

VAZ002-007-008-TNZ017-027-036-066-071-260300
...SOUTHWEST VIRGINIA/EAST TENNESSEE...

CITY           SKY/WX    TMP DP  RH WIND       PRES   REMARKS
WISE*          CLEAR     63  43  48 S3        30.17R
JONESVILLE*      N/A     66  46  48 CALM      30.14R
ABINGDON*      PTCLDY    63  46  53 SW3       30.18R
BRISTOL        PTCLDY    65  46  50 SE6       30.16R
MORRISTOWN*    MOCLDY    64  46  52 SE7       30.10S
SEVIERVILLE*   CLEAR     64  45  48 CALM      30.10R
KNOXVILLE      CLEAR     67  47  48 SE6       30.08R
LAFOLLETTE*    MOCLDY    66  48  52 VRB3      30.11R
OAK RIDGE      CLOUDY    70  46  42 S5        30.09R
CROSSVILLE     CLOUDY    59  54  83 CALM      30.10S
NASHVILLE      LGT RAIN  62  56  80 S10       30.01R
$$

...KEY TO REMARKS...
VSB - VISIBILITY IN MILES
WCI - WIND CHILL INDEX
HX  - HEAT INDEX

$$




USA.gov is the U.S. government's official web portal to all federal, state and local government web resources and services.